• In Hungary
  • List of Countries
  • For 7 days
  • Water Temperature
  • Satellite Maps
  • Weather Map
  • News
  • Weather Widgets
  • user-avatar
    Login

    Hourly Weather Frenstat pod Radhostem

    Today, 11 December, Monday

    Time Temperature Precipitation Wind Pressure Humidity
    00:00 -2°C° 0.1 mm 7 mps 708 mmHg 81%
    01:00 -1°C° 0 mm 4 mps 708 mmHg 85%
    02:00 -1°C° 0.1 mm 5 mps 708 mmHg 85%
    03:00 0°C° 0.1 mm 5 mps 708 mmHg 85%
    04:00 -1°C° 0.1 mm 6 mps 708 mmHg 86%
    05:00 -1°C° 0 mm 6 mps 708 mmHg 86%
    06:00 -1°C° 0 mm 6 mps 708 mmHg 86%
    07:00 -1°C° 0 mm 6 mps 708 mmHg 87%
    08:00 +1°C° 0 mm 5 mps 708 mmHg 87%
    09:00 +2°C° 0 mm 5 mps 708 mmHg 87%
    10:00 +2°C° 0 mm 5 mps 708 mmHg 88%
    11:00 +3°C° 0 mm 5 mps 707 mmHg 87%
    12:00 +4°C° 0 mm 6 mps 707 mmHg 87%
    13:00 +5°C° 0 mm 7 mps 707 mmHg 86%
    14:00 +6°C° 0 mm 8 mps 706 mmHg 86%
    15:00 +6°C° 0 mm 8 mps 706 mmHg 86%
    16:00 +7°C° 0 mm 9 mps 706 mmHg 86%
    17:00 +7°C° 0 mm 9 mps 706 mmHg 86%
    18:00 +7°C° 0 mm 9 mps 706 mmHg 85%
    19:00 +7°C° 0 mm 10 mps 706 mmHg 84%
    20:00 +7°C° 0 mm 10 mps 706 mmHg 83%
    21:00 +7°C° 0 mm 10 mps 707 mmHg 81%
    22:00 +7°C° 0 mm 10 mps 707 mmHg 80%
    23:00 +7°C° 0 mm 10 mps 707 mmHg 80%

    Tomorrow, 12 December, Tuesday

    Time Temperature Precipitation Wind Pressure Humidity
    00:00 +7°C° 0 mm 10 mps 708 mmHg 80%
    01:00 +7°C° 0 mm 10 mps 708 mmHg 80%
    02:00 +7°C° 0 mm 9 mps 709 mmHg 81%
    03:00 +7°C° 0 mm 9 mps 709 mmHg 81%
    04:00 +7°C° 0 mm 8 mps 710 mmHg 82%
    05:00 +7°C° 0.1 mm 8 mps 710 mmHg 83%
    06:00 +8°C° 0.1 mm 7 mps 711 mmHg 84%
    07:00 +7°C° 0.1 mm 6 mps 712 mmHg 85%
    08:00 +7°C° 0.2 mm 6 mps 712 mmHg 85%
    09:00 +6°C° 0.2 mm 5 mps 713 mmHg 85%
    10:00 +6°C° 0.2 mm 4 mps 714 mmHg 85%
    11:00 +6°C° 0.1 mm 4 mps 714 mmHg 81%
    12:00 +6°C° 0.1 mm 5 mps 715 mmHg 77%
    13:00 +6°C° 0.1 mm 5 mps 716 mmHg 73%
    14:00 +5°C° 0.1 mm 4 mps 716 mmHg 75%
    15:00 +4°C° 0.1 mm 4 mps 717 mmHg 77%
    16:00 +4°C° 0.1 mm 4 mps 718 mmHg 79%
    17:00 +3°C° 0.4 mm 4 mps 719 mmHg 78%
    18:00 +3°C° 0.4 mm 4 mps 719 mmHg 78%
    19:00 +1°C° 0.4 mm 4 mps 720 mmHg 77%
    20:00 +2°C° 0.3 mm 3 mps 721 mmHg 78%
    21:00 +2°C° 0.3 mm 3 mps 721 mmHg 78%
    22:00 +1°C° 0.3 mm 3 mps 722 mmHg 79%
    23:00 +2°C° 0 mm 2 mps 722 mmHg 79%

    Day after tomorrow, 13 December, Wednesday

    Time Temperature Precipitation Wind Pressure Humidity
    00:00 +2°C° 0 mm 2 mps 723 mmHg 79%
    01:00 +1°C° 0 mm 2 mps 723 mmHg 80%
    02:00 +1°C° 0 mm 2 mps 723 mmHg 81%
    03:00 -1°C° 0 mm 2 mps 723 mmHg 83%
    04:00 -1°C° 0 mm 2 mps 723 mmHg 85%
    05:00 -1°C° 0 mm 2 mps 724 mmHg 86%
    06:00 -2°C° 0 mm 2 mps 724 mmHg 87%
    07:00 -2°C° 0 mm 2 mps 724 mmHg 89%
    08:00 -2°C° 0 mm 2 mps 725 mmHg 86%
    09:00 -1°C° 0 mm 2 mps 725 mmHg 84%
    10:00 -1°C° 0 mm 2 mps 725 mmHg 81%
    11:00 +1°C° 0 mm 2 mps 725 mmHg 79%
    12:00 +1°C° 0 mm 2 mps 724 mmHg 76%
    13:00 +1°C° 0 mm 3 mps 724 mmHg 74%
    14:00 0°C° 0 mm 3 mps 724 mmHg 78%
    15:00 -1°C° 0 mm 3 mps 723 mmHg 82%
    16:00 -2°C° 0 mm 2 mps 723 mmHg 85%
    17:00 -2°C° 0 mm 3 mps 722 mmHg 86%
    18:00 -4°C° 0 mm 3 mps 722 mmHg 86%
    19:00 -4°C° 0 mm 3 mps 721 mmHg 87%
    20:00 -4°C° 0 mm 3 mps 721 mmHg 85%
    21:00 -4°C° 0 mm 4 mps 721 mmHg 83%
    22:00 -3°C° 0 mm 4 mps 720 mmHg 82%
    23:00 -3°C° 0 mm 4 mps 720 mmHg 82%

    14 December, Thursday

    Time Temperature Precipitation Wind Pressure Humidity
    00:00 -4°C° 0 mm 5 mps 719 mmHg 83%
    01:00 -4°C° 0 mm 5 mps 718 mmHg 83%
    02:00 -4°C° 0 mm 5 mps 718 mmHg 82%
    03:00 -2°C° 0 mm 5 mps 717 mmHg 81%
    04:00 -2°C° 0 mm 5 mps 717 mmHg 80%
    05:00 -2°C° 0 mm 5 mps 716 mmHg 81%
    06:00 -2°C° 0 mm 5 mps 716 mmHg 82%
    07:00 -2°C° 0 mm 5 mps 716 mmHg 83%
    08:00 -1°C° 0 mm 5 mps 715 mmHg 83%
    09:00 -1°C° 0 mm 5 mps 715 mmHg 83%
    10:00 -2°C° 0 mm 6 mps 715 mmHg 82%
    11:00 -1°C° 0 mm 6 mps 715 mmHg 82%
    12:00 -1°C° 0 mm 6 mps 714 mmHg 82%
    13:00 -1°C° 0 mm 6 mps 714 mmHg 82%
    14:00 0°C° 0.2 mm 5 mps 714 mmHg 84%
    15:00 0°C° 0.2 mm 5 mps 713 mmHg 86%
    16:00 0°C° 0.2 mm 4 mps 713 mmHg 88%
    17:00 0°C° 0.4 mm 4 mps 713 mmHg 89%
    18:00 0°C° 0.4 mm 5 mps 712 mmHg 89%
    19:00 0°C° 0.4 mm 5 mps 712 mmHg 89%
    20:00 0°C° 0.2 mm 5 mps 711 mmHg 89%
    21:00 +1°C° 0.2 mm 5 mps 710 mmHg 89%
    22:00 +1°C° 0.2 mm 5 mps 709 mmHg 89%
    23:00 +1°C° 0.5 mm 5 mps 709 mmHg 90%

    15 December, Friday

    Time Temperature Precipitation Wind Pressure Humidity
    00:00 +1°C° 0.5 mm 4 mps 710 mmHg 91%
    01:00 +1°C° 0.5 mm 4 mps 710 mmHg 92%
    02:00 +1°C° 0.5 mm 4 mps 710 mmHg 91%
    03:00 +1°C° 0.5 mm 4 mps 711 mmHg 90%
    04:00 +1°C° 0.5 mm 4 mps 711 mmHg 89%
    05:00 0°C° 0 mm 4 mps 712 mmHg 88%
    06:00 +1°C° 0 mm 3 mps 712 mmHg 88%
    07:00 +1°C° 0 mm 2 mps 713 mmHg 88%
    08:00 +1°C° 0 mm 2 mps 713 mmHg 86%
    09:00 +1°C° 0 mm 3 mps 713 mmHg 85%
    10:00 +1°C° 0 mm 3 mps 714 mmHg 83%
    11:00 +2°C° 0 mm 2 mps 713 mmHg 82%
    12:00 +2°C° 0 mm 2 mps 713 mmHg 81%
    13:00 +3°C° 0 mm 2 mps 712 mmHg 80%
    14:00 +2°C° 0 mm 2 mps 712 mmHg 82%
    15:00 +3°C° 0 mm 1 mps 711 mmHg 84%
    16:00 +2°C° 0 mm 1 mps 711 mmHg 85%
    17:00 +2°C° 0.4 mm 1 mps 710 mmHg 86%
    18:00 +2°C° 0.4 mm 1 mps 710 mmHg 86%
    19:00 +2°C° 0.4 mm 1 mps 710 mmHg 87%
    20:00 +2°C° 0.4 mm 1 mps 710 mmHg 87%
    21:00 +1°C° 0.4 mm 2 mps 710 mmHg 87%
    22:00 +1°C° 0.4 mm 2 mps 710 mmHg 88%
    23:00 +1°C° 0.5 mm 2 mps 710 mmHg 88%

    16 December, Saturday

    Time Temperature Precipitation Wind Pressure Humidity
    00:00 +1°C° 0.5 mm 1 mps 710 mmHg 89%
    01:00 +1°C° 0.5 mm 1 mps 710 mmHg 90%
    02:00 +1°C° 0 mm 1 mps 711 mmHg 91%
    03:00 0°C° 0 mm 1 mps 711 mmHg 91%
    04:00 0°C° 0 mm 1 mps 711 mmHg 91%
    05:00 0°C° 0 mm 1 mps 712 mmHg 92%
    06:00 -1°C° 0 mm 1 mps 712 mmHg 92%
    07:00 -1°C° 0 mm 1 mps 712 mmHg 92%
    08:00 0°C° 0 mm 1 mps 713 mmHg 91%
    09:00 +1°C° 0 mm 1 mps 714 mmHg 89%
    10:00 -1°C° 0 mm 2 mps 714 mmHg 87%
    11:00 +1°C° 0 mm 2 mps 714 mmHg 86%
    12:00 +1°C° 0 mm 2 mps 715 mmHg 85%
    13:00 +1°C° 0 mm 3 mps 715 mmHg 84%
    14:00 +1°C° 0 mm 2 mps 715 mmHg 86%
    15:00 +1°C° 0 mm 2 mps 715 mmHg 88%
    16:00 -1°C° 0 mm 2 mps 716 mmHg 90%
    17:00 -1°C° 0 mm 2 mps 716 mmHg 90%
    18:00 -1°C° 0 mm 2 mps 717 mmHg 91%
    19:00 -1°C° 0 mm 2 mps 718 mmHg 91%
    20:00 -1°C° 0 mm 2 mps 718 mmHg 92%
    21:00 -2°C° 0 mm 2 mps 718 mmHg 92%
    22:00 -2°C° 0 mm 2 mps 719 mmHg 93%
    23:00 -2°C° 0 mm 2 mps 719 mmHg 93%
    Show more